Hourly Data Report for October 10, 2016

All times are specified in Local Standard Time (LST). Add 1 hour to adjust for Daylight Saving Time where and when it is observed.

ST LEONARD CS
NEW BRUNSWICK

47°09'28.050" N
67°49'55.014" W
245.00 m
810I001
71019
WIY

Download Data

Hourly Data (October 2016)
Hourly Data Report for October 10, 2016
Temp Definition
°C
Dew Point Temp Definition
°C
Rel Hum Definition
%
Wind Dir Definition
10's deg

Wind Spd Definition
km/h
Visibility Definition
km
Stn Press Definition
kPa
Hmdx Definition


Wind Chill Definition


Weather Definition


TIME
00:00 4.4 2.1 85 34 7   98.95     LegendNANA
01:00 3.8 1.9 87 33 7   98.84     LegendNANA
02:00 3.6 1.9 89 33 7   98.84     LegendNANA
03:00 3.4 2.0 91 33 7   98.82     LegendNANA
04:00 3.9 2.4 90 33 8   98.83     LegendNANA
05:00 4.0 2.2 88 34 11   98.76     LegendNANA
06:00 4.1 2.5 89 34 11   98.78     LegendNANA
07:00 4.4 2.6 88 33 12   98.85     LegendNANA
08:00 5.4 3.0 84 34 17   98.84     LegendNANA
09:00 6.4 3.0 79 35 16   98.86     LegendNANA
10:00 7.3 2.9 74 35 21   98.89     LegendNANA
11:00 7.3 2.7 73 34 20   98.85     LegendNANA
12:00 8.2 2.5 67 34 24   98.86     LegendNANA
13:00 8.6 1.8 63 34 26   98.87     LegendNANA
14:00 8.3 1.3 61 33 31   98.89     LegendNANA
15:00 8.5 0.5 57 33 29   98.95     LegendNANA
16:00 8.4 -0.1 55 35 22   99.02     LegendNANA
17:00 7.6 -0.9 55 35 21   99.07     LegendNANA
18:00 6.1 -1.1 60 33 18   99.17     LegendNANA
19:00 5.2 -0.9 65 33 14   99.24     LegendNANA
20:00 3.0 -1.4 73 31 11   99.32     LegendNANA
21:00 2.2 -1.3 78 34 6   99.36     LegendNANA
22:00 1.1 -1.5 83 29 7   99.40     LegendNANA
23:00 0.4 -1.9 84 33 8   99.47     LegendNANA

Notes on Data Quality.

Legend

  • E = Estimated
  • M = Missing
  • NA = Not Available
  • ‡ = Partner data that is not subject to review by the National Climate Archives
Date modified: